{"data":{"norad_id":69025,"epoch":"2026-09-20T00:49:10.750944Z","epoch_age_seconds":59564,"freshness":"FRESH","line1":"1 69025U 26101A   26263.03415221  .00010665  00000+0  33242-3 0  9993","line2":"2 69025  97.2837 116.4678 0001787  89.6798 270.4650 15.33424674 21100","mean_motion":15.33424674,"eccentricity":0.0001787,"inclination_deg":97.2837,"raan_deg":116.4678,"arg_perigee_deg":89.6798,"mean_anomaly_deg":270.465,"bstar":0.00033242,"rev_number":2110,"period_min":93.907449411499,"perigee_km":464.38067456726,"apogee_km":466.82662747593,"semimajor_km":6843.7406510216,"source":"CELESTRAK","updated_at":"2026-09-20T09:00:44.057629Z"}}